Time,TemperatureF,DewpointF,PressureIn,WindDirection,WindDirectionDegrees,WindSpeedMPH,WindSpeedGustMPH,Humidity,HourlyPrecipIn,Conditions,Clouds,dailyrainin,SolarRadiationWatts/m^2,SoftwareType,DateUTC
2013-04-10 00:00:00,30.0,25.0,-100.00,East,90,5.0,-999.0,81,-99.99,,,-99.99,0.000000,,2013-04-10 04:00:00,
2013-04-10 00:43:00,30.0,25.0,-100.00,East,90,5.0,-999.0,81,-99.99,,,-99.99,0.000000,,2013-04-10 04:43:00,
2013-04-10 00:53:00,30.0,25.0,-100.00,East,90,5.0,-999.0,81,-99.99,,,-99.99,0.000000,,2013-04-10 04:53:00,
2013-04-10 02:00:00,30.0,26.0,-100.00,ENE,67,3.0,-999.0,84,-99.99,,,-99.99,0.000000,,2013-04-10 06:00:00,
2013-04-10 02:42:00,30.0,26.0,-100.00,ENE,67,3.0,-999.0,84,-99.99,,,-99.99,0.000000,,2013-04-10 06:42:00,
2013-04-10 02:52:00,30.0,26.0,-100.00,ENE,67,3.0,-999.0,84,-99.99,,,-99.99,0.000000,,2013-04-10 06:52:00,
2013-04-10 03:00:00,29.0,25.0,-100.00,East,90,3.0,-999.0,82,-99.99,,,-99.99,0.000000,,2013-04-10 07:00:00,
2013-04-10 03:43:00,29.0,25.0,-100.00,East,90,3.0,-999.0,82,-99.99,,,-99.99,0.000000,,2013-04-10 07:43:00,
2013-04-10 03:52:00,29.0,25.0,-100.00,East,90,3.0,-999.0,82,-99.99,,,-99.99,0.000000,,2013-04-10 07:52:00,
2013-04-10 05:00:00,29.0,24.0,-100.00,East,90,3.0,-999.0,81,-99.99,,,-99.99,0.000000,,2013-04-10 09:00:00,
2013-04-10 05:43:00,29.0,24.0,-100.00,East,90,3.0,-999.0,81,-99.99,,,-99.99,0.000000,,2013-04-10 09:43:00,
2013-04-10 05:53:00,29.0,24.0,-100.00,East,90,3.0,-999.0,81,-99.99,,,-99.99,0.000000,,2013-04-10 09:53:00,
2013-04-10 06:00:00,29.0,23.0,-100.00,ENE,67,3.0,-999.0,79,-99.99,,,-99.99,0.000000,,2013-04-10 10:00:00,
2013-04-10 06:43:00,29.0,23.0,-100.00,ENE,67,3.0,-999.0,79,-99.99,,,-99.99,0.000000,,2013-04-10 10:43:00,
2013-04-10 06:52:00,29.0,23.0,-100.00,ENE,67,3.0,-999.0,79,-99.99,,,-99.99,0.000000,,2013-04-10 10:52:00,
2013-04-10 07:00:00,28.0,22.0,-100.00,ESE,112,2.0,-999.0,79,-99.99,,,-99.99,0.000000,,2013-04-10 11:00:00,
2013-04-10 07:42:00,28.0,22.0,-100.00,ESE,112,2.0,-999.0,79,-99.99,,,-99.99,0.000000,,2013-04-10 11:42:00,
2013-04-10 07:53:00,28.0,22.0,-100.00,ESE,112,2.0,-999.0,79,-99.99,,,-99.99,0.000000,,2013-04-10 11:53:00,
2013-04-10 08:00:00,28.0,22.0,-100.00,East,90,2.0,-999.0,77,-99.99,,,-99.99,16.240000,,2013-04-10 12:00:00,
2013-04-10 08:43:00,28.0,22.0,-100.00,East,90,2.0,-999.0,77,-99.99,,,-99.99,16.240000,,2013-04-10 12:43:00,
2013-04-10 08:52:00,28.0,22.0,-100.00,East,90,2.0,-999.0,77,-99.99,,,-99.99,16.240000,,2013-04-10 12:52:00,
2013-04-10 09:00:00,30.0,22.0,-100.00,ENE,67,4.0,-999.0,71,-99.99,,,-99.99,125.279999,,2013-04-10 13:00:00,
2013-04-10 09:43:00,30.0,22.0,-100.00,ENE,67,4.0,-999.0,71,-99.99,,,-99.99,125.279999,,2013-04-10 13:43:00,
2013-04-10 09:53:00,30.0,22.0,-100.00,ENE,67,4.0,-999.0,71,-99.99,,,-99.99,125.279999,,2013-04-10 13:53:00,
2013-04-10 10:00:00,32.0,22.0,-100.00,ESE,112,4.0,-999.0,66,-99.99,,,-99.99,265.640015,,2013-04-10 14:00:00,
2013-04-10 10:42:00,32.0,22.0,-100.00,ESE,112,4.0,-999.0,66,-99.99,,,-99.99,265.640015,,2013-04-10 14:42:00,
2013-04-10 10:52:00,32.0,22.0,-100.00,ESE,112,4.0,-999.0,66,-99.99,,,-99.99,265.640015,,2013-04-10 14:52:00,
2013-04-10 12:00:00,37.0,23.0,-100.00,ESE,112,6.0,-999.0,56,-99.99,,,-99.99,642.640015,,2013-04-10 16:00:00,
2013-04-10 12:43:00,37.0,23.0,-100.00,ESE,112,6.0,-999.0,56,-99.99,,,-99.99,642.640015,,2013-04-10 16:43:00,
2013-04-10 12:53:00,37.0,23.0,-100.00,ESE,112,6.0,-999.0,56,-99.99,,,-99.99,642.640015,,2013-04-10 16:53:00,
2013-04-10 13:00:00,37.0,23.0,-100.00,East,90,6.0,-999.0,55,-99.99,,,-99.99,779.520020,,2013-04-10 17:00:00,
2013-04-10 13:43:00,37.0,23.0,-100.00,East,90,6.0,-999.0,55,-99.99,,,-99.99,779.520020,,2013-04-10 17:43:00,
2013-04-10 13:53:00,37.0,23.0,-100.00,East,90,6.0,-999.0,55,-99.99,,,-99.99,779.520020,,2013-04-10 17:53:00,
2013-04-10 14:00:00,38.0,22.0,-100.00,ESE,112,6.0,-999.0,52,-99.99,,,-99.99,820.119995,,2013-04-10 18:00:00,
2013-04-10 14:43:00,38.0,22.0,-100.00,ESE,112,6.0,-999.0,52,-99.99,,,-99.99,820.119995,,2013-04-10 18:43:00,
2013-04-10 14:53:00,38.0,22.0,-100.00,ESE,112,6.0,-999.0,52,-99.99,,,-99.99,820.119995,,2013-04-10 18:53:00,
2013-04-10 15:00:00,38.0,21.0,-100.00,East,90,6.0,-999.0,51,-99.99,,,-99.99,735.440002,,2013-04-10 19:00:00,
2013-04-10 15:42:00,38.0,21.0,-100.00,East,90,6.0,-999.0,51,-99.99,,,-99.99,735.440002,,2013-04-10 19:42:00,
2013-04-10 15:53:00,38.0,21.0,-100.00,East,90,6.0,-999.0,51,-99.99,,,-99.99,735.440002,,2013-04-10 19:53:00,
2013-04-10 16:00:00,37.0,19.0,-100.00,East,90,5.0,-999.0,48,-99.99,,,-99.99,607.840027,,2013-04-10 20:00:00,
2013-04-10 16:43:00,37.0,19.0,-100.00,East,90,5.0,-999.0,48,-99.99,,,-99.99,607.840027,,2013-04-10 20:43:00,
2013-04-10 16:52:00,37.0,19.0,-100.00,East,90,5.0,-999.0,48,-99.99,,,-99.99,607.840027,,2013-04-10 20:52:00,
2013-04-10 17:00:00,35.0,19.0,-100.00,ENE,67,6.0,-999.0,51,-99.99,,,-99.99,462.839996,,2013-04-10 21:00:00,
2013-04-10 17:53:00,35.0,19.0,-100.00,ENE,67,6.0,-999.0,51,-99.99,,,-99.99,462.839996,,2013-04-10 21:53:00,
2013-04-10 18:00:00,35.0,18.0,-100.00,East,90,6.0,-999.0,49,-99.99,,,-99.99,371.200012,,2013-04-10 22:00:00,
2013-04-10 18:34:00,35.0,18.0,-100.00,East,90,6.0,-999.0,49,-99.99,,,-99.99,371.200012,,2013-04-10 22:34:00,
2013-04-10 18:43:00,35.0,18.0,-100.00,East,90,6.0,-999.0,49,-99.99,,,-99.99,371.200012,,2013-04-10 22:43:00,
2013-04-10 18:53:00,35.0,18.0,-100.00,East,90,6.0,-999.0,49,-99.99,,,-99.99,371.200012,,2013-04-10 22:53:00,
2013-04-10 19:00:00,34.0,20.0,-100.00,East,90,6.0,-999.0,56,-99.99,,,-99.99,233.160004,,2013-04-10 23:00:00,
2013-04-10 19:43:00,34.0,20.0,-100.00,East,90,6.0,-999.0,56,-99.99,,,-99.99,233.160004,,2013-04-10 23:43:00,
2013-04-10 19:53:00,34.0,20.0,-100.00,East,90,6.0,-999.0,56,-99.99,,,-99.99,233.160004,,2013-04-10 23:53:00,
2013-04-10 20:00:00,32.0,22.0,-100.00,East,90,5.0,-999.0,67,-99.99,,,-99.99,51.040001,,2013-04-11 00:00:00,
2013-04-10 20:43:00,32.0,22.0,-100.00,East,90,5.0,-999.0,67,-99.99,,,-99.99,51.040001,,2013-04-11 00:43:00,
2013-04-10 20:53:00,32.0,22.0,-100.00,East,90,5.0,-999.0,67,-99.99,,,-99.99,51.040001,,2013-04-11 00:53:00,
2013-04-10 21:00:00,31.0,23.0,-100.00,SE,135,4.0,-999.0,72,-99.99,,,-99.99,3.480000,,2013-04-11 01:00:00,
2013-04-10 21:42:00,31.0,23.0,-100.00,SE,135,4.0,-999.0,72,-99.99,,,-99.99,3.480000,,2013-04-11 01:42:00,
2013-04-10 21:52:00,31.0,23.0,-100.00,SE,135,4.0,-999.0,72,-99.99,,,-99.99,3.480000,,2013-04-11 01:52:00,
2013-04-10 22:00:00,31.0,24.0,-100.00,East,90,4.0,-999.0,73,-99.99,,,-99.99,0.000000,,2013-04-11 02:00:00,
2013-04-10 22:53:00,31.0,24.0,-100.00,East,90,4.0,-999.0,73,-99.99,,,-99.99,0.000000,,2013-04-11 02:53:00,